sat.trackr.live / text

‹ back to catalog

STARLINK-33861

NORAD 63678 · 2025-085Q

PAYLOAD ACTIVE UNKNOWN

§ Identity

Operator
Country
US
Launch date
2025-04-28
Launch site
AFETR
Launch vehicle
Mass (kg)
RCS (m²)

Purposes: comms

External: N2YO · Heavens-Above · Gunter

§ Orbital elements

Epoch: 2026-05-25T04:00:23.737824Z

Period
94.26 min
Inclination
42.9989°
Eccentricity
0.0003113
Mean motion
15.27637042 rev/d
Perigee alt
480.7 km
Apogee alt
485.0 km
Semi-major
6,861.0 km
B*
1.2773e-3
RAAN
319.2301°
Arg perigee
273.8672°
Mean anomaly
86.1823°
Rev number
6,055

§ Raw data

STARLINK-338611 63678U 25085Q   26145.16694141  .00035118  00000+0  12773-2 0  99992 63678  42.9989 319.2301 0003113 273.8672  86.1823 15.27637042 60556

JSON: /api/v1/satellites/63678 · /tle

For live sub-satellite position, see the globe view (requires WebGL).

§ Visibility from observer

Set your observer location to see the next 7 days of passes ≥ 10°. The values pass through the URL so the page stays shareable.

No JS? Fill the form by hand. The geolocation button needs JavaScript.